Meadow Lake, CO

11:24 PM MDT on March 25, 2017 (GMT -0600)
Meadow Lake

Weather History for KFLY - March, 2013

Change the Weather History Date:

Friday, March 8, 2013

  Actual Average (KCOS) Record (KCOS)
Temperature  
Mean Temperature 42 °F -  
Max Temperature 56 °F 52 °F 70 °F (1955)
Min Temperature 29 °F 24 °F 0 °F (1964)
Degree Days  
Heating Degree Days 22    
Moisture  
Dew Point 25 °F    
Average Humidity 56    
Maximum Humidity 92    
Minimum Humidity 26    
Precipitation  
Precipitation 0.00 in - - ()
Sea Level Pressure  
Sea Level Pressure 29.84 in    
Wind  
Wind Speed 8 mph (NE)    
Max Wind Speed 16 mph    
Max Gust Speed 25 mph    
Visibility 10 miles    
Events      
Averages and records for this station are not official NWS values.
T = Trace of Precipitation, MM = Missing Value Source: NWS Daily Summary

Daily Weather History Graph

Daily Weather History Graph

Search for Another Location

Airport or City:

Trip Planner

Search our weather history database for the weather conditions in past years. The results will help you decide how hot, cold, wet, or windy it might be!

Date:

Astronomy

Mar. 08, 2013 Rise Set
Actual Time 6:19 AM MST 5:58 PM MST
Civil Twilight 5:53 AM MST 6:25 PM MST
Nautical Twilight 5:22 AM MST 6:56 PM MST
Astronomical Twilight 4:51 AM MST 7:27 PM MST
Moon 4:04 AM MST (3/8) 2:57 PM MST (3/8)
Length of Visible Light 12h 31m
Length of Day
11h 38m
Waning Crescent, 11% of the Moon is Illuminated
Mar 8
Waning Crescent
Mar 11
New
Mar 19
First Quarter
Mar 27
Full
Apr 2
Last Quarter

Hourly Weather History & Observations

Time (MST) Temp. Windchill Dew Point Humidity Pressure Visibility Wind Dir Wind Speed Gust Speed Precip Events Conditions
12:13 AM 31.8 °F 25.4 °F 25.0 °F 76% 29.99 in 10.0 mi NW 6.9 mph - N/A   Clear
12:33 AM 32.2 °F 28.9 °F 24.8 °F 74% 29.99 in 10.0 mi NNW 3.5 mph - N/A   Clear
12:53 AM 31.3 °F 22.7 °F 24.6 °F 76% 29.98 in 10.0 mi North 10.4 mph - N/A   Clear
1:13 AM 31.6 °F 26.0 °F 25.0 °F 76% 29.98 in 10.0 mi NNW 5.8 mph - N/A   Clear
1:33 AM 33.4 °F 28.1 °F 25.5 °F 73% 29.96 in 10.0 mi NNW 5.8 mph - N/A   Clear
1:53 AM 33.4 °F 26.6 °F 24.8 °F 71% 29.95 in 10.0 mi North 8.1 mph - N/A   Clear
2:13 AM 30.7 °F 24.9 °F 24.3 °F 77% 29.95 in 10.0 mi NW 5.8 mph - N/A   Clear
2:33 AM 30.2 °F 23.4 °F 24.1 °F 78% 29.94 in 10.0 mi NW 6.9 mph - N/A   Clear
2:53 AM 31.5 °F 24.2 °F 24.4 °F 75% 29.94 in 10.0 mi NW 8.1 mph - N/A   Clear
3:13 AM 31.5 °F 24.2 °F 23.9 °F 74% 29.94 in 10.0 mi WNW 8.1 mph - N/A   Clear
3:33 AM 30.0 °F 25.2 °F 22.6 °F 74% 29.94 in 10.0 mi West 4.6 mph - N/A   Clear
3:53 AM 29.8 °F 23.9 °F 22.6 °F 75% 29.94 in 10.0 mi WNW 5.8 mph - N/A   Clear
4:13 AM 31.6 °F 25.1 °F 22.1 °F 68% 29.94 in 10.0 mi West 6.9 mph - N/A   Clear
4:33 AM 35.1 °F - 20.8 °F 56% 29.94 in 10.0 mi Calm Calm - N/A   Clear
4:53 AM 33.1 °F 27.7 °F 22.1 °F 64% 29.94 in 10.0 mi North 5.8 mph - N/A   Clear
5:13 AM 34.0 °F 25.5 °F 22.5 °F 63% 29.94 in 10.0 mi NNE 11.5 mph - N/A   Scattered Clouds
5:33 AM 33.3 °F 27.9 °F 23.0 °F 66% 29.93 in 10.0 mi North 5.8 mph - N/A   Scattered Clouds
5:53 AM 35.1 °F 28.6 °F 19.2 °F 53% 29.92 in 10.0 mi North 8.1 mph - N/A   Scattered Clouds
6:13 AM 32.4 °F 26.9 °F 21.0 °F 63% 29.92 in 10.0 mi North 5.8 mph - N/A   Scattered Clouds
6:33 AM 33.3 °F 25.7 °F 21.6 °F 62% 29.92 in 10.0 mi North 9.2 mph - N/A   Mostly Cloudy
6:53 AM 34.2 °F 30.0 °F 22.5 °F 62% 29.92 in 10.0 mi NNW 4.6 mph - N/A   Overcast
7:13 AM 37.2 °F 31.2 °F 21.9 °F 54% 29.91 in 10.0 mi North 8.1 mph - N/A   Scattered Clouds
7:33 AM 43.3 °F 38.1 °F 20.3 °F 40% 29.92 in 10.0 mi North 9.2 mph - N/A   Clear
7:47 AM 44.8 °F 39.4 °F 20.3 °F 38% 29.92 in 10.0 mi North 10.4 mph - N/A   Scattered Clouds
8:07 AM 50.4 °F - 20.3 °F 31% 29.92 in 10.0 mi North 10.4 mph - N/A   Scattered Clouds
8:28 AM 50.5 °F - 16.5 °F 26% 29.92 in 10.0 mi ENE 3.5 mph - N/A   Clear
8:48 AM 50.9 °F - 22.1 °F 32% 29.91 in 10.0 mi NE 5.8 mph - N/A   Clear
9:06 AM 51.4 °F - 19.6 °F 29% 29.91 in 10.0 mi ENE 6.9 mph - N/A   Clear
9:27 AM 49.3 °F - 23.5 °F 36% 29.91 in 10.0 mi ENE 8.1 mph - N/A   Clear
10:07 AM 49.6 °F - 23.4 °F 36% 29.90 in 10.0 mi ENE 9.2 mph - N/A   Clear
10:27 AM 50.0 °F - 23.5 °F 36% 29.90 in 10.0 mi East 8.1 mph - N/A   Clear
10:47 AM 49.3 °F - 24.3 °F 38% 29.90 in 10.0 mi ESE 8.1 mph 17.3 mph N/A   Clear
11:07 AM 50.2 °F - 24.4 °F 37% 29.89 in 10.0 mi SSE 6.9 mph - N/A   Clear
11:28 AM 50.4 °F - 23.9 °F 36% 29.88 in 10.0 mi South 11.5 mph - N/A   Clear
11:48 AM 50.2 °F - 25.3 °F 38% 29.87 in 10.0 mi SSE 10.4 mph - N/A   Clear
12:08 PM 50.9 °F - 23.7 °F 35% 29.86 in 10.0 mi SE 9.2 mph - N/A   Clear
12:26 PM 49.8 °F - 23.7 °F 36% 29.84 in 10.0 mi SSE 10.4 mph 16.1 mph N/A   Clear
12:48 PM 51.3 °F - 22.8 °F 33% 29.83 in 10.0 mi South 12.7 mph 16.1 mph N/A   Clear
1:08 PM 51.6 °F - 20.7 °F 30% 29.82 in 10.0 mi South 9.2 mph - N/A   Clear
1:28 PM 51.3 °F - 22.5 °F 32% 29.81 in 10.0 mi South 12.7 mph 17.3 mph N/A   Clear
1:48 PM 55.8 °F - 23.7 °F 29% 29.80 in 10.0 mi South 13.8 mph 20.7 mph N/A   Clear
2:08 PM 56.5 °F - 26.6 °F 32% 29.79 in 10.0 mi SE 15.0 mph 23.0 mph N/A   Clear
2:27 PM 54.9 °F - 27.0 °F 34% 29.78 in 10.0 mi SE 12.7 mph 25.3 mph N/A   Clear
2:47 PM 51.6 °F - 26.2 °F 37% 29.79 in 10.0 mi ESE 13.8 mph 23.0 mph N/A   Clear
3:07 PM 51.1 °F - 27.5 °F 40% 29.78 in 10.0 mi ESE 16.1 mph 19.6 mph N/A   Clear
3:27 PM 51.4 °F - 27.5 °F 40% 29.78 in 10.0 mi ESE 15.0 mph 19.6 mph N/A   Clear
3:47 PM 53.1 °F - 28.4 °F 39% 29.77 in 10.0 mi ESE 8.1 mph - N/A   Clear
4:07 PM 50.4 °F - 28.4 °F 43% 29.78 in 10.0 mi ESE 16.1 mph - N/A   Clear
4:26 PM 50.5 °F - 29.3 °F 44% 29.77 in 10.0 mi ESE 10.4 mph - N/A   Scattered Clouds
4:47 PM 50.0 °F - 23.5 °F 36% 29.76 in 10.0 mi South 11.5 mph - N/A   Scattered Clouds
5:07 PM 48.7 °F - 25.3 °F 40% 29.76 in 10.0 mi South 13.8 mph - N/A   Clear
5:29 PM 46.8 °F - 25.7 °F 44% 29.74 in 10.0 mi South 10.4 mph - N/A   Clear
5:48 PM 45.5 °F 41.3 °F 26.6 °F 48% 29.75 in 10.0 mi South 8.1 mph - N/A   Clear
6:08 PM 42.8 °F 38.6 °F 26.8 °F 53% 29.75 in 10.0 mi East 6.9 mph - N/A   Clear
6:28 PM 42.3 °F 35.9 °F 28.2 °F 58% 29.75 in 10.0 mi ESE 11.5 mph 16.1 mph N/A   Clear
6:47 PM 41.7 °F 37.3 °F 28.4 °F 59% 29.75 in 10.0 mi SE 6.9 mph - N/A   Clear
7:08 PM 40.3 °F 36.3 °F 28.4 °F 63% 29.74 in 10.0 mi SE 5.8 mph - N/A   Clear
7:27 PM 39.6 °F 34.0 °F 28.2 °F 64% 29.72 in 10.0 mi East 8.1 mph - N/A   Clear
7:47 PM 39.0 °F 33.4 °F 28.9 °F 67% 29.72 in 10.0 mi NE 8.1 mph - N/A   Scattered Clouds
8:07 PM 39.4 °F 34.5 °F 29.3 °F 67% 29.73 in 10.0 mi NNE 6.9 mph - N/A   Scattered Clouds
8:28 PM 39.2 °F 33.6 °F 30.6 °F 71% 29.72 in 10.0 mi NE 8.1 mph - N/A   Mostly Cloudy
8:48 PM 38.5 °F 32.1 °F 31.1 °F 75% 29.72 in 10.0 mi NE 9.2 mph - N/A   Scattered Clouds
9:08 PM 37.8 °F 31.3 °F 30.7 °F 76% 29.71 in 10.0 mi North 9.2 mph - N/A   Scattered Clouds
9:28 PM 38.3 °F 31.4 °F 30.4 °F 73% 29.71 in 10.0 mi NNE 10.4 mph - N/A   Overcast
9:47 PM 37.4 °F 30.3 °F 30.2 °F 75% 29.71 in 10.0 mi NNE 10.4 mph 18.4 mph N/A   Mostly Cloudy
10:07 PM 35.2 °F 26.6 °F 30.6 °F 83% 29.70 in 10.0 mi North 12.7 mph - N/A   Scattered Clouds
10:27 PM 33.4 °F 23.1 °F 31.1 °F 91% 29.69 in 7.0 mi North 16.1 mph - N/A   Clear
10:53 PM 33.3 °F 24.1 °F 31.1 °F 92% 29.66 in 7.0 mi North 12.7 mph - N/A   Clear
11:13 PM 33.1 °F 23.4 °F 30.7 °F 91% 29.66 in 5.0 mi North 13.8 mph - N/A   Clear
11:33 PM 32.9 °F 23.2 °F 30.6 °F 91% 29.65 in 5.0 mi North 13.8 mph - N/A   Clear
11:53 PM 33.1 °F 23.9 °F 30.7 °F 91% 29.65 in 5.0 mi NNW 12.7 mph - N/A   Clear